TimeCEST,TemperatureF,Dew PointF,Humidity,Sea Level PressureIn,VisibilityMPH,Wind Direction,Wind SpeedMPH,Gust SpeedMPH,PrecipitationIn,Events,Conditions,WindDirDegrees,DateUTC
12:55 AM,42.8,39.2,87,29.92,0.0,WSW,16.1,-,N/A,Fog,Fog,250,2012-10-13 22:55:00
1:55 AM,42.8,39.2,87,29.92,0.0,West,17.3,-,N/A,Fog,Fog,270,2012-10-13 23:55:00
2:00 AM,43,40,85,,0,West,17.3,,,Fog,Heavy Fog,270,2012-10-14 00:00:00
2:55 AM,41.0,37.4,87,29.92,6.2,West,18.4,-,N/A,,Scattered Clouds,270,2012-10-14 00:55:00
3:55 AM,41.0,37.4,87,29.89,6.2,West,20.7,-,N/A,,Scattered Clouds,270,2012-10-14 01:55:00
4:55 AM,41.0,37.4,87,29.89,6.2,West,17.3,-,N/A,,Scattered Clouds,270,2012-10-14 02:55:00
5:55 AM,41.0,39.2,93,29.89,0.0,West,15.0,-,N/A,Fog,Fog,270,2012-10-14 03:55:00
6:55 AM,41.0,41.0,100,29.89,0.0,West,16.1,-,N/A,Fog,Fog,260,2012-10-14 04:55:00
7:55 AM,41.0,39.2,93,29.89,0.0,West,13.8,-,N/A,Fog,Fog,260,2012-10-14 05:55:00
8:00 AM,42,40,88,,0,West,13.8,,,Fog,Heavy Fog,260,2012-10-14 06:00:00
8:55 AM,41.0,41.0,100,29.89,0.0,WSW,16.1,-,N/A,Fog,Fog,250,2012-10-14 06:55:00
9:55 AM,41.0,39.2,93,29.89,0.0,WSW,16.1,-,N/A,Fog,Fog,250,2012-10-14 07:55:00
10:55 AM,41.0,39.2,93,29.89,0.0,WSW,18.4,-,N/A,Fog,Fog,250,2012-10-14 08:55:00
11:55 AM,41.0,39.2,93,29.89,0.3,WSW,21.9,-,N/A,Fog,Fog,250,2012-10-14 09:55:00
12:55 PM,42.8,39.2,87,29.89,1.9,WSW,25.3,-,N/A,,Mist,250,2012-10-14 10:55:00
1:55 PM,44.6,39.2,81,29.86,0.1,West,24.2,-,N/A,Fog,Fog,270,2012-10-14 11:55:00
2:00 PM,44,39,78,,0,West,24.2,,,Fog,Heavy Fog,270,2012-10-14 12:00:00
2:55 PM,42.8,39.2,87,29.86,0.0,WSW,18.4,-,N/A,Fog,Fog,250,2012-10-14 12:55:00
3:55 PM,44.6,41.0,87,29.86,0.0,WSW,16.1,-,N/A,Fog-Rain,Light Rain,250,2012-10-14 13:55:00
4:55 PM,42.8,41.0,93,29.83,0.0,WSW,20.7,-,N/A,Fog,Fog,250,2012-10-14 14:55:00
5:55 PM,42.8,39.2,87,29.80,0.0,WSW,26.5,-,N/A,Fog,Fog,250,2012-10-14 15:55:00
6:55 PM,41.0,39.2,93,29.80,0.0,WSW,32.2,-,N/A,Fog,Fog,250,2012-10-14 16:55:00
7:55 PM,41.0,37.4,87,29.80,0.0,WSW,35.7,-,N/A,Fog,Fog,250,2012-10-14 17:55:00
8:00 PM,41,38,86,,0,WSW,35.7,,,Fog,Heavy Fog,250,2012-10-14 18:00:00
8:55 PM,39.2,39.2,100,29.77,0.0,WSW,39.1,-,N/A,Fog,Fog,250,2012-10-14 18:55:00
9:55 PM,39.2,39.2,100,29.74,0.0,WSW,39.1,-,N/A,Fog-Rain,Light Rain,250,2012-10-14 19:55:00
10:55 PM,39.2,35.6,87,29.74,6.2,WSW,40.3,-,N/A,,Scattered Clouds,250,2012-10-14 20:55:00
11:55 PM,41.0,39.2,93,29.77,0.0,WSW,39.1,-,N/A,Fog,Fog,250,2012-10-14 21:55:00